When you browse on this site, cookies collect data to enhance your experience and personalize the content and advertising you see.
Visit our Privacy Policy to learn more. By continuing to use the site, you agree to this use of cookies and data.
  • In Belgium
  • List of Countries
  • For 7 days
  • Water Temperature
  • Satellite Maps
  • Weather Map
  • Weather Widgets
  • user-avatar
    Login

    Hourly Weather Bastogne

    Today, 16 December, Sunday

    Time Temperature Precipitation Wind Pressure Humidity
    00:00 -1°C° 0.8 mm 9 mps 755 mmHg 92%
    01:00 -1°C° 0.1 mm 8 mps 755 mmHg 93%
    02:00 -1°C° 0.1 mm 7 mps 755 mmHg 94%
    03:00 -1°C° 0.1 mm 6 mps 755 mmHg 95%
    04:00 -1°C° 0 mm 6 mps 755 mmHg 95%
    05:00 0°C° 0 mm 5 mps 755 mmHg 95%
    06:00 0°C° 0 mm 5 mps 755 mmHg 95%
    07:00 +1°C° 0 mm 4 mps 755 mmHg 95%
    08:00 +1°C° 0 mm 4 mps 756 mmHg 96%
    09:00 +1°C° 0 mm 4 mps 756 mmHg 96%
    10:00 +3°C° 0.1 mm 4 mps 756 mmHg 95%
    11:00 +3°C° 0.1 mm 4 mps 756 mmHg 95%
    12:00 +3°C° 0.1 mm 5 mps 756 mmHg 95%
    13:00 +3°C° 0 mm 5 mps 756 mmHg 96%
    14:00 +3°C° 0 mm 5 mps 756 mmHg 96%
    15:00 +3°C° 0 mm 4 mps 756 mmHg 97%
    16:00 +2°C° 0.1 mm 5 mps 757 mmHg 96%
    17:00 +2°C° 0.1 mm 5 mps 757 mmHg 96%
    18:00 +1°C° 0.1 mm 5 mps 757 mmHg 96%
    19:00 +1°C° 0 mm 6 mps 757 mmHg 96%
    20:00 +1°C° 0 mm 6 mps 757 mmHg 96%
    21:00 +1°C° 0 mm 6 mps 757 mmHg 96%
    22:00 +2°C° 0.3 mm 5 mps 757 mmHg 96%
    23:00 +2°C° 0.3 mm 5 mps 757 mmHg 96%

    Tomorrow, 17 December, Monday

    Time Temperature Precipitation Wind Pressure Humidity
    00:00 +2°C° 0.3 mm 5 mps 757 mmHg 96%
    01:00 +3°C° 1.2 mm 4 mps 757 mmHg 96%
    02:00 +3°C° 1.2 mm 4 mps 758 mmHg 96%
    03:00 +4°C° 1.2 mm 3 mps 758 mmHg 95%
    04:00 +4°C° 0.3 mm 3 mps 759 mmHg 95%
    05:00 +4°C° 0.3 mm 3 mps 759 mmHg 95%
    06:00 +4°C° 0.3 mm 3 mps 760 mmHg 95%
    07:00 +4°C° 0 mm 3 mps 761 mmHg 94%
    08:00 +4°C° 0 mm 4 mps 762 mmHg 94%
    09:00 +5°C° 0 mm 4 mps 762 mmHg 93%
    10:00 +5°C° 0 mm 4 mps 763 mmHg 90%
    11:00 +6°C° 0 mm 4 mps 763 mmHg 87%
    12:00 +7°C° 0 mm 4 mps 764 mmHg 84%
    13:00 +7°C° 0 mm 4 mps 765 mmHg 85%
    14:00 +6°C° 0 mm 4 mps 765 mmHg 85%
    15:00 +6°C° 0 mm 4 mps 766 mmHg 86%
    16:00 +5°C° 0 mm 4 mps 766 mmHg 88%
    17:00 +5°C° 0 mm 4 mps 766 mmHg 89%
    18:00 +4°C° 0 mm 4 mps 766 mmHg 91%
    19:00 +3°C° 0 mm 5 mps 766 mmHg 91%
    20:00 +3°C° 0 mm 5 mps 767 mmHg 92%
    21:00 +3°C° 0 mm 6 mps 767 mmHg 92%
    22:00 +3°C° 0 mm 6 mps 767 mmHg 92%
    23:00 +3°C° 0 mm 6 mps 767 mmHg 92%

    Day after tomorrow, 18 December, Tuesday

    Time Temperature Precipitation Wind Pressure Humidity
    00:00 +3°C° 0 mm 6 mps 767 mmHg 92%
    01:00 +3°C° 0 mm 6 mps 766 mmHg 93%
    02:00 +3°C° 0 mm 7 mps 766 mmHg 93%
    03:00 +3°C° 0 mm 7 mps 765 mmHg 93%
    04:00 +3°C° 0 mm 7 mps 765 mmHg 93%
    05:00 +3°C° 0 mm 7 mps 765 mmHg 93%
    06:00 +2°C° 0 mm 8 mps 764 mmHg 94%
    07:00 +2°C° 0 mm 8 mps 764 mmHg 92%
    08:00 +2°C° 0 mm 9 mps 764 mmHg 90%
    09:00 +2°C° 0 mm 9 mps 763 mmHg 88%
    10:00 +3°C° 0 mm 10 mps 763 mmHg 81%
    11:00 +5°C° 0 mm 10 mps 762 mmHg 73%
    12:00 +6°C° 0 mm 11 mps 761 mmHg 66%
    13:00 +6°C° 0 mm 10 mps 760 mmHg 65%
    14:00 +5°C° 0 mm 10 mps 759 mmHg 64%
    15:00 +5°C° 0 mm 10 mps 759 mmHg 63%
    16:00 +5°C° 0 mm 10 mps 758 mmHg 65%
    17:00 +5°C° 0 mm 10 mps 758 mmHg 67%
    18:00 +5°C° 0 mm 10 mps 757 mmHg 69%
    19:00 +5°C° 0.1 mm 10 mps 757 mmHg 70%
    20:00 +5°C° 0.1 mm 10 mps 756 mmHg 71%
    21:00 +5°C° 0.1 mm 10 mps 756 mmHg 72%
    22:00 +5°C° 0.6 mm 10 mps 756 mmHg 77%
    23:00 +6°C° 0.6 mm 10 mps 756 mmHg 82%

    19 December, Wednesday

    Time Temperature Precipitation Wind Pressure Humidity
    00:00 +6°C° 0.6 mm 10 mps 755 mmHg 87%
    01:00 +6°C° 0.2 mm 9 mps 756 mmHg 87%
    02:00 +6°C° 0.2 mm 8 mps 756 mmHg 88%
    03:00 +6°C° 0.2 mm 8 mps 756 mmHg 89%
    04:00 +6°C° 0 mm 7 mps 757 mmHg 89%
    05:00 +5°C° 0 mm 7 mps 757 mmHg 90%
    06:00 +4°C° 0 mm 7 mps 758 mmHg 91%
    07:00 +4°C° 0 mm 7 mps 758 mmHg 91%
    08:00 +4°C° 0 mm 7 mps 758 mmHg 91%
    09:00 +4°C° 0 mm 7 mps 758 mmHg 91%
    10:00 +5°C° 0 mm 6 mps 758 mmHg 87%
    11:00 +7°C° 0 mm 6 mps 758 mmHg 84%
    12:00 +8°C° 0 mm 6 mps 758 mmHg 80%
    13:00 +7°C° 0 mm 5 mps 758 mmHg 82%
    14:00 +7°C° 0 mm 5 mps 758 mmHg 84%
    15:00 +7°C° 0 mm 5 mps 758 mmHg 86%
    16:00 +7°C° 0.2 mm 5 mps 758 mmHg 87%
    17:00 +7°C° 0.2 mm 5 mps 758 mmHg 88%
    18:00 +6°C° 0.2 mm 5 mps 759 mmHg 89%
    19:00 +6°C° 0.1 mm 5 mps 759 mmHg 90%
    20:00 +5°C° 0.1 mm 5 mps 759 mmHg 91%
    21:00 +5°C° 0.1 mm 5 mps 759 mmHg 92%
    22:00 +5°C° 0 mm 4 mps 759 mmHg 91%
    23:00 +4°C° 0 mm 4 mps 759 mmHg 91%

    20 December, Thursday

    Time Temperature Precipitation Wind Pressure Humidity
    00:00 +4°C° 0 mm 4 mps 759 mmHg 91%
    01:00 +4°C° 0 mm 4 mps 760 mmHg 91%
    02:00 +4°C° 0 mm 4 mps 760 mmHg 91%
    03:00 +4°C° 0 mm 4 mps 760 mmHg 91%
    04:00 +4°C° 0 mm 4 mps 760 mmHg 91%
    05:00 +2°C° 0 mm 5 mps 760 mmHg 92%
    06:00 +2°C° 0 mm 5 mps 760 mmHg 92%
    07:00 +2°C° 0 mm 5 mps 761 mmHg 91%
    08:00 +3°C° 0 mm 6 mps 761 mmHg 91%
    09:00 +3°C° 0 mm 6 mps 761 mmHg 90%
    10:00 +4°C° 0 mm 6 mps 761 mmHg 87%
    11:00 +5°C° 0 mm 7 mps 761 mmHg 84%
    12:00 +6°C° 0 mm 7 mps 761 mmHg 81%
    13:00 +6°C° 0.4 mm 7 mps 761 mmHg 82%
    14:00 +5°C° 0.4 mm 7 mps 761 mmHg 83%
    15:00 +5°C° 0.4 mm 7 mps 761 mmHg 85%
    16:00 +5°C° 0.6 mm 7 mps 761 mmHg 85%
    17:00 +5°C° 0.6 mm 7 mps 761 mmHg 86%
    18:00 +5°C° 0.6 mm 7 mps 761 mmHg 87%
    19:00 +5°C° 0.3 mm 6 mps 762 mmHg 87%
    20:00 +4°C° 0.3 mm 6 mps 762 mmHg 88%
    21:00 +5°C° 0.3 mm 5 mps 762 mmHg 89%
    22:00 +5°C° 0 mm 5 mps 762 mmHg 90%
    23:00 +5°C° 0 mm 5 mps 762 mmHg 91%

    21 December, Friday

    Time Temperature Precipitation Wind Pressure Humidity
    00:00 +3°C° 0 mm 5 mps 762 mmHg 91%
    01:00 +3°C° 0 mm 5 mps 762 mmHg 92%
    02:00 +3°C° 0 mm 5 mps 761 mmHg 92%
    03:00 +3°C° 0 mm 5 mps 761 mmHg 93%
    04:00 +3°C° 0.1 mm 6 mps 760 mmHg 93%
    05:00 +4°C° 0.1 mm 6 mps 760 mmHg 93%
    06:00 +4°C° 0.1 mm 7 mps 759 mmHg 93%
    07:00 +4°C° 0.9 mm 8 mps 759 mmHg 92%
    08:00 +5°C° 0.9 mm 8 mps 758 mmHg 91%
    09:00 +5°C° 0.9 mm 9 mps 757 mmHg 90%
    10:00 +5°C° 0.9 mm 10 mps 756 mmHg 89%
    11:00 +6°C° 0.9 mm 10 mps 755 mmHg 88%
    12:00 +6°C° 0.9 mm 11 mps 753 mmHg 87%
    13:00 +7°C° 0.6 mm 10 mps 753 mmHg 88%
    14:00 +8°C° 0.6 mm 10 mps 752 mmHg 89%
    15:00 +10°C° 0.6 mm 9 mps 752 mmHg 90%
    16:00 +9°C° 0.1 mm 10 mps 753 mmHg 86%
    17:00 +9°C° 0.1 mm 10 mps 753 mmHg 82%
    18:00 +8°C° 0.1 mm 10 mps 754 mmHg 78%
    19:00 +8°C° 0 mm 9 mps 755 mmHg 80%
    20:00 +7°C° 0 mm 9 mps 756 mmHg 82%
    21:00 +6°C° 0 mm 8 mps 756 mmHg 84%
    22:00 +7°C° 0 mm 8 mps 757 mmHg 86%
    23:00 +7°C° 0 mm 8 mps 757 mmHg 88%
    Show more